{"data":{"norad_id":53435,"intl_designator":"2022-097AZ","name":"STARLINK-4542","alt_names":[],"object_type":"PAYLOAD","status":"ACTIVE","operator":null,"country":"US","launch_date":"2022-08-10","launch_site_code":"AFETR","launch_vehicle":null,"mission":null,"orbit_class":"UNKNOWN","rcs_meters":null,"size_class":null,"mass_kg":null,"dimensions":null,"purposes":["comms"],"wikipedia_slug":null,"has_3d_model":false,"image_url":null,"decayed_at":null,"tle_current":{"epoch":"2026-05-25T02:39:57.808800Z","epoch_age_seconds":79645,"freshness":"FRESH","line1":"1 53435U 22097AZ  26145.11108575  .00000819  00000+0  69520-4 0  9999","line2":"2 53435  53.2143 120.8525 0001276  86.4090 273.7048 15.08837291210307","mean_motion":15.08837291,"eccentricity":0.0001276,"inclination_deg":53.2143,"raan_deg":120.8525,"arg_perigee_deg":86.409,"mean_anomaly_deg":273.7048,"bstar":6.952e-5,"rev_number":21030,"period_min":95.437726028472,"perigee_km":538.86894671154,"apogee_km":540.63439189994,"semimajor_km":6917.8886693057,"source":"CELESTRAK","updated_at":"2026-05-25T13:38:17.406899Z"}}}